When you browse on this site, cookies collect data to enhance your experience and personalize the content and advertising you see.
Visit our Privacy Policy to learn more. By continuing to use the site, you agree to this use of cookies and data.
  • In Hungary
  • List of Countries
  • For 7 days
  • Water Temperature
  • Satellite Maps
  • Weather Map
  • News
  • Weather Widgets
  • user-avatar
    Login

    Hourly Weather Cwiklinek

    Today, 17 November, Saturday

    Time Temperature Precipitation Wind Pressure Humidity
    00:00 0°C° 0 mm 3 mps 771 mmHg 91%
    01:00 -1°C° 0 mm 3 mps 771 mmHg 92%
    02:00 -1°C° 0 mm 3 mps 771 mmHg 91%
    03:00 -1°C° 0 mm 2 mps 771 mmHg 90%
    04:00 -2°C° 0 mm 2 mps 771 mmHg 90%
    05:00 -2°C° 0 mm 2 mps 771 mmHg 87%
    06:00 -2°C° 0 mm 2 mps 771 mmHg 84%
    07:00 -2°C° 0 mm 2 mps 770 mmHg 81%
    08:00 -1°C° 0 mm 3 mps 771 mmHg 71%
    09:00 0°C° 0 mm 3 mps 771 mmHg 62%
    10:00 +1°C° 0 mm 3 mps 771 mmHg 53%
    11:00 +2°C° 0 mm 3 mps 770 mmHg 49%
    12:00 +3°C° 0 mm 3 mps 770 mmHg 46%
    13:00 +3°C° 0 mm 3 mps 770 mmHg 42%
    14:00 +2°C° 0 mm 3 mps 769 mmHg 45%
    15:00 +1°C° 0 mm 3 mps 769 mmHg 49%
    16:00 +1°C° 0 mm 2 mps 769 mmHg 52%
    17:00 +1°C° 0 mm 2 mps 769 mmHg 52%
    18:00 +1°C° 0 mm 2 mps 769 mmHg 52%
    19:00 +1°C° 0 mm 2 mps 769 mmHg 52%
    20:00 -1°C° 0 mm 2 mps 768 mmHg 52%
    21:00 +1°C° 0 mm 1 mps 768 mmHg 52%
    22:00 +1°C° 0 mm 1 mps 768 mmHg 52%
    23:00 +1°C° 0 mm 1 mps 768 mmHg 51%

    Tomorrow, 18 November, Sunday

    Time Temperature Precipitation Wind Pressure Humidity
    00:00 +1°C° 0 mm 1 mps 767 mmHg 50%
    01:00 +1°C° 0 mm 1 mps 767 mmHg 49%
    02:00 +1°C° 0 mm 1 mps 766 mmHg 49%
    03:00 +1°C° 0 mm 1 mps 766 mmHg 49%
    04:00 +1°C° 0 mm 1 mps 765 mmHg 49%
    05:00 -1°C° 0 mm 2 mps 765 mmHg 52%
    06:00 -2°C° 0 mm 2 mps 764 mmHg 55%
    07:00 -2°C° 0 mm 2 mps 764 mmHg 58%
    08:00 -1°C° 0 mm 2 mps 763 mmHg 61%
    09:00 +2°C° 0 mm 2 mps 763 mmHg 65%
    10:00 +2°C° 0 mm 3 mps 762 mmHg 68%
    11:00 +2°C° 0 mm 3 mps 762 mmHg 73%
    12:00 +2°C° 0 mm 3 mps 761 mmHg 78%
    13:00 +2°C° 0 mm 3 mps 761 mmHg 83%
    14:00 +2°C° 0 mm 3 mps 760 mmHg 86%
    15:00 +2°C° 0 mm 3 mps 760 mmHg 88%
    16:00 +2°C° 0 mm 3 mps 760 mmHg 91%
    17:00 +2°C° 0 mm 3 mps 759 mmHg 91%
    18:00 +2°C° 0 mm 3 mps 759 mmHg 92%
    19:00 +2°C° 0 mm 3 mps 759 mmHg 92%
    20:00 +2°C° 0 mm 3 mps 758 mmHg 92%
    21:00 +1°C° 0 mm 4 mps 758 mmHg 92%
    22:00 +1°C° 0 mm 4 mps 758 mmHg 92%
    23:00 +1°C° 0.1 mm 4 mps 758 mmHg 91%

    Day after tomorrow, 19 November, Monday

    Time Temperature Precipitation Wind Pressure Humidity
    00:00 +1°C° 0.1 mm 4 mps 758 mmHg 90%
    01:00 +3°C° 0.1 mm 4 mps 758 mmHg 89%
    02:00 +2°C° 0.1 mm 5 mps 757 mmHg 88%
    03:00 +1°C° 0.1 mm 5 mps 757 mmHg 87%
    04:00 +1°C° 0.1 mm 5 mps 757 mmHg 86%
    05:00 +1°C° 0.2 mm 5 mps 757 mmHg 85%
    06:00 +1°C° 0.2 mm 5 mps 757 mmHg 84%
    07:00 +1°C° 0.2 mm 5 mps 757 mmHg 83%
    08:00 +1°C° 0.3 mm 6 mps 757 mmHg 82%
    09:00 +1°C° 0.3 mm 6 mps 757 mmHg 81%
    10:00 +1°C° 0.3 mm 6 mps 757 mmHg 80%
    11:00 +1°C° 0.1 mm 6 mps 757 mmHg 80%
    12:00 +1°C° 0.1 mm 6 mps 757 mmHg 79%
    13:00 +2°C° 0.1 mm 6 mps 757 mmHg 78%
    14:00 +1°C° 0.1 mm 6 mps 757 mmHg 80%
    15:00 +1°C° 0.1 mm 5 mps 757 mmHg 82%
    16:00 +1°C° 0.1 mm 5 mps 757 mmHg 83%
    17:00 +1°C° 0 mm 5 mps 757 mmHg 84%
    18:00 +1°C° 0 mm 5 mps 757 mmHg 84%
    19:00 +1°C° 0 mm 5 mps 757 mmHg 85%
    20:00 +1°C° 0.1 mm 5 mps 757 mmHg 84%
    21:00 +1°C° 0.1 mm 5 mps 758 mmHg 83%
    22:00 0°C° 0.1 mm 5 mps 758 mmHg 82%
    23:00 0°C° 0 mm 5 mps 758 mmHg 82%

    20 November, Tuesday

    Time Temperature Precipitation Wind Pressure Humidity
    00:00 0°C° 0 mm 5 mps 758 mmHg 82%
    01:00 0°C° 0 mm 5 mps 758 mmHg 82%
    02:00 -1°C° 0 mm 5 mps 758 mmHg 83%
    03:00 -1°C° 0 mm 5 mps 758 mmHg 84%
    04:00 -1°C° 0 mm 5 mps 757 mmHg 84%
    05:00 -2°C° 0 mm 5 mps 757 mmHg 86%
    06:00 -2°C° 0 mm 5 mps 757 mmHg 87%
    07:00 -2°C° 0 mm 5 mps 757 mmHg 88%
    08:00 -2°C° 0 mm 5 mps 757 mmHg 83%
    09:00 -2°C° 0 mm 6 mps 757 mmHg 78%
    10:00 -2°C° 0 mm 6 mps 757 mmHg 73%
    11:00 -1°C° 0 mm 6 mps 757 mmHg 70%
    12:00 -1°C° 0 mm 6 mps 756 mmHg 67%
    13:00 -1°C° 0 mm 6 mps 756 mmHg 64%
    14:00 -1°C° 0 mm 6 mps 755 mmHg 67%
    15:00 -2°C° 0 mm 6 mps 755 mmHg 69%
    16:00 -3°C° 0 mm 6 mps 755 mmHg 71%
    17:00 -3°C° 0 mm 6 mps 754 mmHg 73%
    18:00 -3°C° 0 mm 6 mps 754 mmHg 75%
    19:00 -3°C° 0 mm 7 mps 754 mmHg 76%
    20:00 -3°C° 0 mm 7 mps 753 mmHg 77%
    21:00 -4°C° 0 mm 7 mps 753 mmHg 78%
    22:00 -4°C° 0 mm 7 mps 752 mmHg 80%
    23:00 -4°C° 0 mm 7 mps 752 mmHg 80%

    21 November, Wednesday

    Time Temperature Precipitation Wind Pressure Humidity
    00:00 -5°C° 0 mm 8 mps 751 mmHg 80%
    01:00 -5°C° 0 mm 8 mps 751 mmHg 80%
    02:00 -5°C° 0.1 mm 8 mps 751 mmHg 81%
    03:00 -4°C° 0.1 mm 8 mps 750 mmHg 81%
    04:00 -4°C° 0.1 mm 8 mps 750 mmHg 82%
    05:00 -4°C° 0.2 mm 8 mps 750 mmHg 82%
    06:00 -4°C° 0.2 mm 8 mps 750 mmHg 83%
    07:00 -4°C° 0.2 mm 8 mps 750 mmHg 84%
    08:00 -2°C° 0.3 mm 8 mps 750 mmHg 83%
    09:00 -2°C° 0.3 mm 8 mps 750 mmHg 83%
    10:00 -2°C° 0.3 mm 8 mps 751 mmHg 82%
    11:00 -2°C° 0.2 mm 8 mps 751 mmHg 82%
    12:00 -1°C° 0.2 mm 8 mps 751 mmHg 82%
    13:00 -1°C° 0.2 mm 7 mps 751 mmHg 82%
    14:00 -1°C° 0.2 mm 7 mps 752 mmHg 83%
    15:00 -1°C° 0.2 mm 7 mps 752 mmHg 85%
    16:00 -2°C° 0.2 mm 6 mps 752 mmHg 86%
    17:00 -2°C° 0.1 mm 6 mps 753 mmHg 86%
    18:00 -2°C° 0.1 mm 6 mps 753 mmHg 87%
    19:00 -2°C° 0.1 mm 6 mps 753 mmHg 87%
    20:00 -1°C° 0.1 mm 5 mps 754 mmHg 88%
    21:00 -1°C° 0.1 mm 5 mps 754 mmHg 88%
    22:00 -1°C° 0.1 mm 5 mps 755 mmHg 89%
    23:00 -1°C° 0 mm 5 mps 755 mmHg 89%

    22 November, Thursday

    Time Temperature Precipitation Wind Pressure Humidity
    00:00 -1°C° 0 mm 5 mps 755 mmHg 89%
    01:00 -1°C° 0 mm 5 mps 756 mmHg 90%
    02:00 -1°C° 0 mm 5 mps 756 mmHg 90%
    03:00 -1°C° 0 mm 5 mps 756 mmHg 90%
    04:00 -1°C° 0 mm 5 mps 756 mmHg 90%
    05:00 -1°C° 0 mm 5 mps 756 mmHg 90%
    06:00 -1°C° 0 mm 5 mps 757 mmHg 90%
    07:00 -1°C° 0 mm 5 mps 757 mmHg 90%
    08:00 -1°C° 0 mm 5 mps 757 mmHg 89%
    09:00 0°C° 0 mm 5 mps 758 mmHg 89%
    10:00 0°C° 0 mm 5 mps 758 mmHg 88%
    11:00 0°C° 0 mm 5 mps 758 mmHg 88%
    12:00 0°C° 0 mm 5 mps 758 mmHg 87%
    13:00 +1°C° 0 mm 6 mps 758 mmHg 86%
    14:00 -1°C° 0 mm 6 mps 758 mmHg 87%
    15:00 -1°C° 0 mm 6 mps 758 mmHg 87%
    16:00 0°C° 0 mm 5 mps 759 mmHg 88%
    17:00 0°C° 0 mm 5 mps 759 mmHg 87%
    18:00 -1°C° 0 mm 6 mps 759 mmHg 87%
    19:00 -1°C° 0 mm 6 mps 759 mmHg 87%
    20:00 0°C° 0 mm 5 mps 759 mmHg 87%
    21:00 0°C° 0 mm 5 mps 760 mmHg 87%
    22:00 0°C° 0 mm 5 mps 760 mmHg 87%
    23:00 0°C° 0 mm 5 mps 760 mmHg 88%
    Show more